23. Mai 2022

Uhrzeit Code Wetter Temp. Sichtweite Wolken Wind METAR/SPECI
10:20
V
19 °C 10 km+ 16.000 ft 100°   100° 6 kt METAR ETWM 230820Z 10006KT 9999 FEW110 BKN160 19/11 Q1004 BLU
09:20
V
17 °C 10 km+ 17.000 ft 090°   090° 6 kt METAR ETWM 230720Z 09006KT 9999 SCT110 BKN170 17/10 Q1005 BLU
08:20
V
16 °C 10 km+ 17.000 ft 100°   100° 5 kt METAR ETWM 230620Z 10005KT 9999 FEW110 BKN170 16/09 Q1005 BLU
07:20
V
14 °C 10 km+ 13.000 ft 080°   080° 4 kt METAR ETWM 230520Z 08004KT 9999 SCT110 BKN130 14/09 Q1006 BLU
06:20
V
13 °C 10 km+ 11.000 ft 090°   090° 4 kt METAR ETWM 230420Z 09004KT 9999 BKN110 BKN130 13/08 Q1007 BLU
05:20
L
12 °C 0 m - 080°   080° 3 kt METAR ETWM 230320Z AUTO 08003KT //// // ////// 12/07 Q1007 ///
04:20
L
12 °C 0 m - 080°   080° 4 kt METAR ETWM 230220Z AUTO 08004KT //// // ////// 12/07 Q1008 ///
03:20
L
13 °C 0 m - 070°   070° 4 kt METAR ETWM 230120Z AUTO 07004KT //// // ////// 13/07 Q1008 ///
02:20
L
14 °C 0 m - 080°   080° 4 kt METAR ETWM 230020Z AUTO 08004KT //// // ////// 14/07 Q1010 ///
01:20
L
14 °C 0 m - 080°   080° 3 kt METAR ETWM 222320Z AUTO 08003KT //// // ////// 14/07 Q1010 ///
00:20
L
14 °C 0 m - 080°   080° 3 kt METAR ETWM 222220Z AUTO 08003KT //// // ////// 14/07 Q1011 ///

22. Mai 2022

Uhrzeit Code Wetter Temp. Sichtweite Wolken Wind METAR/SPECI
23:20
L
14 °C 0 m - 070°   070° 3 kt METAR ETWM 222120Z AUTO 07003KT //// // ////// 14/08 Q1011 ///
22:20
L
14 °C 0 m - Var   Var 2 kt METAR ETWM 222020Z AUTO VRB02KT //// // ////// 14/08 Q1012 ///
21:20
L
16 °C 0 m - 080°   080° 4 kt METAR ETWM 221920Z AUTO 08004KT //// // ////// 16/08 Q1012 ///
20:20
L
18 °C 0 m - 100°   100° 4 kt METAR ETWM 221820Z AUTO 10004KT //// // ////// 18/08 Q1013 ///
19:20
L
19 °C 0 m - 100°   100° 4 kt METAR ETWM 221720Z AUTO 10004KT //// // ////// 19/08 Q1013 ///
18:20
L
19 °C 0 m - 070°   070° 6 kt METAR ETWM 221620Z AUTO 07006KT //// // ////// 19/07 Q1013 ///
17:20
L
20 °C 0 m - 080°   080° 5 kt METAR ETWM 221520Z AUTO 08005KT //// // ////// 20/08 Q1014 ///
16:20
L
19 °C 0 m - 030°   030° 5 kt METAR ETWM 221420Z AUTO 03005KT //// // ////// 19/08 Q1014 ///
15:20
L
19 °C 0 m - 050°   050° 3 kt METAR ETWM 221320Z AUTO 05003KT //// // ////// 19/07 Q1015 ///
14:20
L
20 °C 0 m - 110°   110° 4 kt METAR ETWM 221220Z AUTO 11004KT //// // ////// 20/09 Q1015 ///
13:20
L
17 °C 0 m - 030°   030° 4 kt METAR ETWM 221120Z AUTO 03004KT //// // ////// 17/07 Q1016 ///
12:20
L
18 °C 0 m - 320°   320° 2 kt METAR ETWM 221020Z AUTO 32002KT //// // ////// 18/08 Q1017 ///
11:20
L
17 °C 0 m - 260°   260° 4 kt METAR ETWM 220920Z AUTO 26004KT //// // ////// 17/08 Q1017 ///
10:20
L
16 °C 0 m - Var   Var 3 kt METAR ETWM 220820Z AUTO VRB03KT //// // ////// 16/08 Q1017 ///
09:20
L
14 °C 0 m - 190°   190° 3 kt METAR ETWM 220720Z AUTO 19003KT //// // ////// 14/09 Q1018 ///
08:20
L
12 °C 0 m - Var   Var 3 kt METAR ETWM 220620Z AUTO VRB03KT //// // ////// 12/09 Q1018 ///
07:20
L
8 °C 0 m - Var   000° 0 kt METAR ETWM 220520Z AUTO 00000KT //// // ////// 08/08 Q1018 ///
06:20
L
5 °C 0 m - Var   000° 0 kt METAR ETWM 220420Z AUTO 00000KT //// // ////// 05/05 Q1018 ///
05:20
L
5 °C 0 m - Var   000° 0 kt METAR ETWM 220320Z AUTO 00000KT //// // ////// 05/05 Q1018 ///
04:20
L
6 °C 0 m - 260°   260° 2 kt METAR ETWM 220220Z AUTO 26002KT //// // ////// 06/06 Q1019 ///
03:20
L
6 °C 0 m - 250°   250° 1 kt METAR ETWM 220120Z AUTO 25001KT //// // ////// 06/06 Q1018 ///
02:20
L
7 °C 0 m - Var   000° 0 kt METAR ETWM 220020Z AUTO 00000KT //// // ////// 07/07 Q1019 ///
01:20
L
8 °C 0 m - 240°   240° 1 kt METAR ETWM 212320Z AUTO 24001KT //// // ////// 08/07 Q1019 ///
00:20
L
9 °C 0 m - Var   Var 1 kt METAR ETWM 212220Z AUTO VRB01KT //// // ////// 09/08 Q1019 ///

21. Mai 2022

Uhrzeit Code Wetter Temp. Sichtweite Wolken Wind METAR/SPECI
23:20
L
11 °C 0 m - 320°   320° 3 kt METAR ETWM 212120Z AUTO 32003KT //// // ////// 11/07 Q1020 ///
22:20
L
13 °C 0 m - 330°   330° 4 kt METAR ETWM 212020Z AUTO 33004KT //// // ////// 13/07 Q1020 ///
21:20
L
14 °C 0 m - 290°   290° 2 kt METAR ETWM 211920Z AUTO 29002KT //// // ////// 14/08 Q1020 ///
20:20
L
15 °C 0 m - 290°   290° 5 kt METAR ETWM 211820Z AUTO 29005KT //// // ////// 15/08 Q1019 ///
19:20
L
16 °C 0 m - 280°   280° 6 18 kt METAR ETWM 211720Z AUTO 28006G18KT //// // ////// 16/08 Q1019 ///
18:20
L
16 °C 0 m - 270°   270° 8 kt METAR ETWM 211620Z AUTO 27008KT //// // ////// 16/08 Q1019 ///
17:20
L
18 °C 0 m - 290°   290° 7 17 kt METAR ETWM 211520Z AUTO 29007G17KT //// // ////// 18/07 Q1019 ///
16:20
L
18 °C 0 m - 270°   270° 12 22 kt METAR ETWM 211420Z AUTO 27012G22KT //// // ////// 18/06 Q1019 ///
15:20
L
18 °C 0 m - 270°   270° 10 20 kt METAR ETWM 211320Z AUTO 27010G20KT //// // ////// 18/08 Q1019 ///
14:20
L
18 °C 0 m - 290°   290° 9 kt METAR ETWM 211220Z AUTO 29009KT //// // ////// 18/08 Q1019 ///
13:20
L
18 °C 0 m - 280°   280° 10 22 kt METAR ETWM 211120Z AUTO 28010G22KT //// // ////// 18/08 Q1019 ///
12:20
L
17 °C 0 m - 270°   270° 8 18 kt METAR ETWM 211020Z AUTO 27008G18KT //// // ////// 17/09 Q1019 ///
11:20
L
16 °C 0 m - 270°   270° 10 21 kt METAR ETWM 210920Z AUTO 27010G21KT //// // ////// 16/09 Q1018 ///
Ältere Daten

Laden Sie unsere App herunter

Einfacher Zugriff auf das gesamte Flugwetter auf Ihrem Mobiltelefon und Tablet.
Mit vielen Funktionen, die auf der Website nicht verfügbar sind, wie Offline-Unterstützung und eine persönliche Flughafenliste.

Wir und Dritte verfolgen dein Internetverhalten auf unserer Website mit Cookies. Wenn du fortfährst, gehen wir davon aus, dass du mit unserer Cookie-Richtlinie einverstanden bist. Mehr erfahren